Total_Precipitation_Accumulation
0.10 0.08 0.04 0.02 0.01 0.01 0.04 0.05 0.04 0.02 0.01 0.03 0.15 0.19 0.12 0.10 0.10 0.14 0.18 0.17 0.13 0.10 0.08 0.08 0.09 0.09 0.11 0.14 0.19 0.22 0.26 0.32 0.38 0.45 0.51 0.56 0.56 0.52
0.25 0.19 0.13 0.08 0.05 0.03 0.04 0.05 0.07 0.05 0.02 0.03 0.13 0.22 0.24 0.14 0.15 0.18 0.14 0.12 0.11 0.11 0.08 0.07 0.08 0.08 0.07 0.07 0.10 0.13 0.15 0.17 0.21 0.27 0.31 0.34 0.34 0.35
0.53 0.42 0.30 0.21 0.14 0.08 0.05 0.04 0.04 0.06 0.06 0.10 0.14 0.18 0.24 0.23 0.23 0.20 0.12 0.09 0.09 0.12 0.10 0.08 0.07 0.06 0.07 0.06 0.05 0.05 0.08 0.08 0.09 0.12 0.16 0.19 0.19 0.17
0.64 0.66 0.55 0.41 0.27 0.16 0.09 0.05 0.04 0.06 0.10 0.13 0.11 0.09 0.13 0.16 0.19 0.14 0.10 0.07 0.07 0.09 0.08 0.08 0.07 0.06 0.07 0.06 0.05 0.04 0.03 0.03 0.03 0.05 0.07 0.09 0.11 0.10
0.38 0.58 0.67 0.61 0.44 0.29 0.19 0.12 0.08 0.05 0.07 0.10 0.12 0.12 0.12 0.12 0.12 0.09 0.08 0.07 0.05 0.07 0.08 0.08 0.07 0.05 0.04 0.04 0.03 0.02 0.01 0.01 0.01 0.02 0.02 0.03 0.04 0.04
0.13 0.26 0.46 0.61 0.58 0.46 0.32 0.21 0.17 0.12 0.08 0.09 0.13 0.14 0.15 0.14 0.11 0.09 0.09 0.09 0.06 0.05 0.05 0.04 0.04 0.03 0.02 0.01 0.01 0.01 0.01 0.00 0.00 0.00 0.01 0.01 0.01 0.01
0.06 0.08 0.16 0.31 0.46 0.51 0.45 0.33 0.24 0.18 0.14 0.11 0.13 0.16 0.19 0.21 0.17 0.12 0.07 0.07 0.07 0.05 0.02 0.02 0.02 0.01 0.01 0.01 0.01 0.00 0.00 0.00 0.00 0.00 0.00 0.00 0.00 0.00
0.11 0.09 0.07 0.10 0.20 0.33 0.42 0.41 0.32 0.21 0.16 0.13 0.13 0.17 0.18 0.15 0.13 0.12 0.09 0.06 0.08 0.07 0.03 0.03 0.01 0.01 0.00 0.00 0.00 0.00 0.00 0.00 0.00 0.00 0.00 0.00 0.00 0.00
0.19 0.16 0.10 0.07 0.08 0.13 0.23 0.30 0.30 0.22 0.14 0.11 0.14 0.20 0.24 0.22 0.18 0.15 0.13 0.12 0.11 0.10 0.04 0.02 0.00 0.00 0.00 0.00 0.00 0.00 0.00 0.00 0.00 0.00 0.00 0.00 0.00 0.00
0.14 0.17 0.14 0.10 0.08 0.07 0.09 0.15 0.19 0.18 0.13 0.07 0.09 0.18 0.27 0.31 0.24 0.22 0.24 0.25 0.24 0.17 0.07 0.04 0.01 0.00 0.00 0.00 0.00 0.00 0.00 0.00 0.00 0.00 0.00 0.00 0.00 0.00
0.11 0.12 0.14 0.12 0.08 0.05 0.05 0.06 0.10 0.12 0.11 0.08 0.07 0.16 0.25 0.29 0.27 0.24 0.27 0.26 0.26 0.18 0.07 0.04 0.03 0.01 0.00 0.00 0.00 0.00 0.00 0.00 0.00 0.00 0.00 0.00 0.00 0.00
0.12 0.14 0.16 0.13 0.10 0.06 0.05 0.04 0.04 0.06 0.07 0.06 0.05 0.09 0.13 0.17 0.19 0.18 0.18 0.17 0.17 0.14 0.06 0.02 0.02 0.02 0.02 0.01 0.00 0.00 0.00 0.00 0.00 0.00 0.00 0.00 0.00 0.00
0.09 0.13 0.19 0.18 0.13 0.09 0.07 0.05 0.04 0.04 0.07 0.07 0.07 0.09 0.13 0.15 0.14 0.18 0.20 0.16 0.14 0.09 0.04 0.02 0.01 0.01 0.01 0.02 0.01 0.00 0.00 0.00 0.00 0.00 0.00 0.00 0.00 0.00
0.15 0.19 0.23 0.28 0.20 0.16 0.13 0.10 0.05 0.04 0.06 0.09 0.10 0.10 0.10 0.11 0.12 0.16 0.20 0.20 0.15 0.12 0.06 0.03 0.01 0.01 0.01 0.01 0.01 0.00 0.00 0.00 0.00 0.00 0.00 0.00 0.00 0.00
0.16 0.27 0.35 0.40 0.33 0.26 0.22 0.19 0.11 0.06 0.07 0.09 0.10 0.09 0.07 0.06 0.08 0.11 0.14 0.16 0.16 0.12 0.08 0.04 0.01 0.01 0.00 0.00 0.00 0.00 0.00 0.00 0.00 0.00 0.00 0.00 0.00 0.00
0.13 0.28 0.45 0.55 0.53 0.42 0.35 0.30 0.19 0.11 0.10 0.11 0.11 0.10 0.08 0.07 0.07 0.06 0.06 0.07 0.09 0.08 0.05 0.02 0.01 0.00 0.00 0.00 0.00 0.00 0.00 0.00 0.00 0.00 0.00 0.00 0.00 0.00
0.11 0.33 0.51 0.64 0.67 0.62 0.52 0.42 0.32 0.22 0.18 0.17 0.14 0.11 0.09 0.07 0.07 0.06 0.04 0.03 0.02 0.02 0.01 0.01 0.00 0.00 0.00 0.00 0.00 0.00 0.00 0.00 0.00 0.00 0.00 0.00 0.00 0.00
0.15 0.34 0.49 0.58 0.63 0.68 0.66 0.58 0.43 0.31 0.26 0.23 0.17 0.11 0.08 0.07 0.06 0.06 0.05 0.03 0.02 0.01 0.00 0.00 0.00 0.01 0.00 0.00 0.00 0.00 0.00 0.00 0.00 0.00 0.00 0.00 0.00 0.00
0.20 0.29 0.35 0.41 0.48 0.60 0.68 0.66 0.49 0.36 0.34 0.33 0.24 0.15 0.09 0.07 0.06 0.06 0.05 0.04 0.03 0.02 0.01 0.00 0.00 0.00 0.01 0.00 0.00 0.00 0.00 0.00 0.00 0.00 0.00 0.00 0.00 0.00
0.18 0.21 0.22 0.27 0.34 0.49 0.61 0.65 0.56 0.43 0.40 0.41 0.33 0.19 0.12 0.08 0.06 0.05 0.04 0.03 0.03 0.02 0.01 0.01 0.01 0.00 0.00 0.00 0.00 0.00 0.00 0.00 0.00 0.00 0.00 0.00 0.00 0.00
0.13 0.13 0.13 0.18 0.26 0.40 0.52 0.59 0.57 0.48 0.43 0.43 0.36 0.23 0.14 0.09 0.06 0.05 0.04 0.03 0.02 0.02 0.01 0.01 0.01 0.00 0.00 0.00 0.00 0.00 0.00 0.00 0.00 0.00 0.00 0.00 0.00 0.00
0.11 0.08 0.08 0.12 0.21 0.35 0.46 0.52 0.53 0.50 0.45 0.42 0.33 0.21 0.13 0.09 0.06 0.05 0.04 0.02 0.02 0.01 0.01 0.01 0.01 0.00 0.00 0.00 0.00 0.00 0.00 0.00 0.00 0.00 0.00 0.00 0.00 0.00
0.08 0.06 0.07 0.10 0.19 0.31 0.40 0.45 0.46 0.45 0.42 0.37 0.27 0.17 0.11 0.09 0.07 0.04 0.03 0.02 0.01 0.01 0.01 0.01 0.00 0.00 0.00 0.00 0.00 0.00 0.00 0.00 0.00 0.00 0.00 0.00 0.00 0.00